Simultaneous Nadir Overpasses (SNOs) Predictions

Prediction of SNOs between GOES-16 and NPP Satellite Orbit:

Table of predicted SNOs for the next 14.0 days since TLE Epoch: 9/14/2024
Index Date Time (GOES-16) GOES-16 Lat,Lon NPP Lat,Lon Distance(km) Time Diff (sec)
1 09/14/2024 18:26:47 -0.05, -75.20 -0.18, -75.81 69.32 80
2 09/15/2024 18:10:40 -0.05, -75.20 0.83, -71.27 448.18 80
3 09/17/2024 06:29:46 0.04, -75.21 0.32, -76.54 150.42 80
4 09/18/2024 06:13:39 0.04, -75.22 -0.69, -72.00 367.68 80
5 09/19/2024 18:32:52 -0.04, -75.23 -0.49, -77.29 233.97 80
6 09/20/2024 18:16:45 -0.04, -75.24 0.49, -72.74 284.57 80
7 09/22/2024 06:35:50 0.04, -75.26 0.64, -78.01 312.89 80
8 09/23/2024 06:19:43 0.04, -75.27 -0.34, -73.46 205.74 80
9 09/24/2024 18:38:56 -0.03, -75.29 -0.79, -78.76 395.23 80
10 09/25/2024 18:22:49 -0.03, -75.30 0.20, -74.22 123.78 80
11 09/27/2024 06:41:53 0.02, -75.33 0.95, -79.47 472.52 80
